contact:dominique.lefevre@mio.osupytheas.fr, maurice.libes@osupytheas.fr, didier.mallarino@osupytheas.fr
Project:EMSO http://www.emso-fr.org/EMSO-France
Depth: 2436.0 m
Title:EMSO Ligure Ouest : Data MII capteur OXYGEN
DateTime,Latitude,Longitude,Optode-Type,Optode_Serial,Oxygen,Saturation_Oxygen,Temperature
DateTime,Latitude,Longitude,Optode-Type,Optode_Serial,µmol.l-1,%,degC
2017-11-29T00:00:54,42.805,6.029,4330,1995,196.597,60.119,13.286
2017-11-29T00:03:54,42.805,6.029,4330,1995,196.662,60.139,13.286
2017-11-29T00:06:54,42.805,6.029,4330,1995,196.670,60.141,13.286
2017-11-29T00:09:54,42.805,6.029,4330,1995,196.794,60.179,13.286
2017-11-29T00:12:54,42.805,6.029,4330,1995,196.769,60.172,13.286
2017-11-29T00:15:54,42.805,6.029,4330,1995,196.707,60.153,13.286
2017-11-29T00:18:54,42.805,6.029,4330,1995,196.695,60.149,13.286
2017-11-29T00:21:54,42.805,6.029,4330,1995,196.832,60.191,13.286
2017-11-29T00:24:54,42.805,6.029,4330,1995,196.878,60.205,13.286
2017-11-29T00:27:54,42.805,6.029,4330,1995,196.930,60.221,13.286
2017-11-29T00:30:54,42.805,6.029,4330,1995,196.959,60.230,13.286
2017-11-29T00:33:54,42.805,6.029,4330,1995,197.034,60.253,13.286
2017-11-29T00:36:54,42.805,6.029,4330,1995,197.090,60.270,13.286
2017-11-29T00:39:54,42.805,6.029,4330,1995,197.104,60.274,13.286
2017-11-29T00:42:54,42.805,6.029,4330,1995,197.144,60.286,13.286
2017-11-29T00:45:54,42.805,6.029,4330,1995,197.153,60.289,13.286
2017-11-29T00:48:54,42.805,6.029,4330,1995,197.168,60.294,13.286
2017-11-29T00:51:54,42.805,6.029,4330,1995,197.218,60.309,13.286
2017-11-29T00:54:54,42.805,6.029,4330,1995,197.210,60.306,13.286
2017-11-29T00:57:54,42.805,6.029,4330,1995,197.350,60.349,13.286
2017-11-29T01:00:54,42.805,6.029,4330,1995,197.337,60.345,13.286
2017-11-29T01:03:54,42.805,6.029,4330,1995,197.426,60.372,13.286
2017-11-29T01:06:54,42.805,6.029,4330,1995,197.346,60.348,13.286
2017-11-29T01:09:54,42.805,6.029,4330,1995,197.438,60.376,13.286
2017-11-29T01:12:54,42.805,6.029,4330,1995,197.454,60.381,13.286
2017-11-29T01:15:54,42.805,6.029,4330,1995,197.418,60.370,13.285
2017-11-29T01:18:54,42.805,6.029,4330,1995,197.513,60.399,13.285
2017-11-29T01:21:54,42.805,6.029,4330,1995,197.490,60.392,13.286
2017-11-29T01:24:54,42.805,6.029,4330,1995,197.464,60.384,13.286
2017-11-29T01:27:54,42.805,6.029,4330,1995,197.486,60.391,13.286
2017-11-29T01:30:54,42.805,6.029,4330,1995,197.395,60.363,13.285
2017-11-29T01:33:54,42.805,6.029,4330,1995,197.539,60.407,13.285
2017-11-29T01:36:54,42.805,6.029,4330,1995,197.482,60.389,13.285
2017-11-29T01:39:54,42.805,6.029,4330,1995,197.440,60.377,13.286
2017-11-29T01:42:54,42.805,6.029,4330,1995,197.381,60.359,13.286
2017-11-29T01:45:54,42.805,6.029,4330,1995,197.346,60.348,13.286
2017-11-29T01:48:54,42.805,6.029,4330,1995,197.338,60.345,13.286
2017-11-29T01:51:54,42.805,6.029,4330,1995,197.291,60.331,13.286
2017-11-29T01:54:54,42.805,6.029,4330,1995,197.305,60.335,13.286
2017-11-29T01:57:54,42.805,6.029,4330,1995,197.364,60.353,13.286
2017-11-29T02:00:54,42.805,6.029,4330,1995,197.272,60.325,13.286
2017-11-29T02:03:54,42.805,6.029,4330,1995,197.175,60.296,13.286
2017-11-29T02:06:54,42.805,6.029,4330,1995,197.262,60.322,13.286
2017-11-29T02:09:54,42.805,6.029,4330,1995,197.234,60.314,13.286
2017-11-29T02:12:54,42.805,6.029,4330,1995,197.164,60.292,13.285
2017-11-29T02:15:54,42.805,6.029,4330,1995,197.245,60.317,13.285
2017-11-29T02:18:54,42.805,6.029,4330,1995,197.221,60.309,13.285
2017-11-29T02:21:54,42.805,6.029,4330,1995,197.114,60.277,13.286
2017-11-29T02:24:54,42.805,6.029,4330,1995,197.163,60.292,13.286
2017-11-29T02:27:54,42.805,6.029,4330,1995,197.109,60.275,13.286
2017-11-29T02:30:54,42.805,6.029,4330,1995,197.212,60.307,13.286
2017-11-29T02:33:54,42.805,6.029,4330,1995,197.259,60.321,13.285
2017-11-29T02:36:54,42.805,6.029,4330,1995,197.197,60.302,13.286
2017-11-29T02:39:54,42.805,6.029,4330,1995,197.157,60.290,13.285
2017-11-29T02:42:54,42.805,6.029,4330,1995,197.177,60.296,13.285
2017-11-29T02:45:54,42.805,6.029,4330,1995,197.192,60.301,13.285
2017-11-29T02:48:54,42.805,6.029,4330,1995,197.239,60.315,13.286
2017-11-29T02:51:54,42.805,6.029,4330,1995,197.193,60.301,13.285
2017-11-29T02:54:54,42.805,6.029,4330,1995,197.181,60.297,13.286
2017-11-29T02:57:54,42.805,6.029,4330,1995,197.280,60.327,13.286
2017-11-29T03:00:54,42.805,6.029,4330,1995,197.331,60.343,13.286
2017-11-29T03:03:54,42.805,6.029,4330,1995,197.290,60.331,13.285
2017-11-29T03:06:54,42.805,6.029,4330,1995,197.360,60.352,13.285
2017-11-29T03:09:54,42.805,6.029,4330,1995,197.364,60.353,13.285
2017-11-29T03:12:54,42.805,6.029,4330,1995,197.395,60.363,13.285
2017-11-29T03:15:54,42.805,6.029,4330,1995,197.368,60.354,13.286
2017-11-29T03:18:54,42.805,6.029,4330,1995,197.434,60.375,13.285
2017-11-29T03:21:54,42.805,6.029,4330,1995,197.490,60.392,13.285
2017-11-29T03:24:54,42.805,6.029,4330,1995,197.537,60.406,13.285
2017-11-29T03:27:54,42.805,6.029,4330,1995,197.654,60.442,13.285
2017-11-29T03:30:54,42.805,6.029,4330,1995,197.719,60.462,13.285
2017-11-29T03:33:54,42.805,6.029,4330,1995,197.745,60.470,13.285
2017-11-29T03:36:54,42.805,6.029,4330,1995,197.860,60.505,13.285
2017-11-29T03:39:54,42.805,6.029,4330,1995,197.925,60.525,13.285
2017-11-29T03:42:54,42.805,6.029,4330,1995,197.938,60.529,13.285
2017-11-29T03:45:54,42.805,6.029,4330,1995,197.992,60.545,13.285
2017-11-29T03:48:54,42.805,6.029,4330,1995,198.036,60.558,13.285
2017-11-29T03:51:54,42.805,6.029,4330,1995,198.090,60.575,13.285
2017-11-29T03:54:54,42.805,6.029,4330,1995,198.124,60.585,13.285
2017-11-29T03:57:54,42.805,6.029,4330,1995,198.138,60.590,13.285
2017-11-29T04:00:54,42.805,6.029,4330,1995,198.149,60.593,13.285
2017-11-29T04:03:54,42.805,6.029,4330,1995,198.167,60.599,13.285
2017-11-29T04:06:54,42.805,6.029,4330,1995,198.227,60.617,13.285
2017-11-29T04:09:54,42.805,6.029,4330,1995,198.170,60.600,13.285
2017-11-29T04:12:54,42.805,6.029,4330,1995,198.211,60.612,13.285
2017-11-29T04:15:54,42.805,6.029,4330,1995,198.225,60.616,13.285
2017-11-29T04:18:54,42.805,6.029,4330,1995,198.159,60.596,13.285
2017-11-29T04:21:54,42.805,6.029,4330,1995,198.190,60.606,13.285
2017-11-29T04:24:54,42.805,6.029,4330,1995,198.175,60.601,13.285
2017-11-29T04:27:54,42.805,6.029,4330,1995,198.285,60.635,13.285
2017-11-29T04:30:54,42.805,6.029,4330,1995,198.286,60.635,13.285
2017-11-29T04:33:54,42.805,6.029,4330,1995,198.283,60.634,13.285
2017-11-29T04:36:54,42.805,6.029,4330,1995,198.241,60.622,13.285
2017-11-29T04:39:54,42.805,6.029,4330,1995,198.203,60.610,13.285
2017-11-29T04:42:54,42.805,6.029,4330,1995,198.257,60.626,13.285
2017-11-29T04:45:54,42.805,6.029,4330,1995,198.244,60.622,13.285
2017-11-29T04:48:54,42.805,6.029,4330,1995,198.294,60.638,13.285
2017-11-29T04:51:54,42.805,6.029,4330,1995,198.199,60.608,13.285
2017-11-29T04:54:54,42.805,6.029,4330,1995,198.258,60.627,13.285
2017-11-29T04:57:54,42.805,6.029,4330,1995,198.247,60.623,13.285
2017-11-29T05:00:54,42.805,6.029,4330,1995,198.275,60.632,13.285
2017-11-29T05:03:54,42.805,6.029,4330,1995,198.192,60.606,13.285
2017-11-29T05:06:54,42.805,6.029,4330,1995,198.297,60.638,13.285
2017-11-29T05:09:54,42.805,6.029,4330,1995,198.243,60.622,13.286
2017-11-29T05:12:54,42.805,6.029,4330,1995,198.268,60.629,13.285
2017-11-29T05:15:54,42.805,6.029,4330,1995,198.227,60.617,13.285
2017-11-29T05:18:54,42.805,6.029,4330,1995,198.170,60.600,13.286
2017-11-29T05:21:54,42.805,6.029,4330,1995,198.071,60.570,13.286
2017-11-29T05:24:54,42.805,6.029,4330,1995,197.996,60.547,13.286
2017-11-29T05:27:54,42.805,6.029,4330,1995,197.964,60.537,13.285
2017-11-29T05:30:54,42.805,6.029,4330,1995,197.952,60.533,13.286
2017-11-29T05:33:54,42.805,6.029,4330,1995,197.977,60.541,13.286
2017-11-29T05:36:54,42.805,6.029,4330,1995,197.954,60.534,13.286
2017-11-29T05:39:54,42.805,6.029,4330,1995,198.004,60.549,13.286
2017-11-29T05:42:54,42.805,6.029,4330,1995,198.026,60.556,13.286
2017-11-29T05:45:54,42.805,6.029,4330,1995,198.089,60.575,13.286
2017-11-29T05:48:54,42.805,6.029,4330,1995,198.115,60.583,13.286
2017-11-29T05:51:54,42.805,6.029,4330,1995,198.089,60.575,13.286
2017-11-29T05:54:54,42.805,6.029,4330,1995,198.143,60.592,13.286
2017-11-29T05:57:54,42.805,6.029,4330,1995,198.035,60.559,13.286
2017-11-29T06:00:54,42.805,6.029,4330,1995,198.134,60.590,13.286
2017-11-29T06:03:54,42.805,6.029,4330,1995,198.195,60.608,13.286
2017-11-29T06:06:54,42.805,6.029,4330,1995,198.167,60.599,13.286
2017-11-29T06:09:54,42.805,6.029,4330,1995,198.110,60.581,13.286
2017-11-29T06:12:54,42.805,6.029,4330,1995,198.107,60.581,13.286
2017-11-29T06:15:54,42.805,6.029,4330,1995,198.126,60.586,13.286
2017-11-29T06:18:54,42.805,6.029,4330,1995,198.076,60.572,13.286
2017-11-29T06:21:54,42.805,6.029,4330,1995,198.149,60.594,13.286
2017-11-29T06:24:54,42.805,6.029,4330,1995,198.037,60.560,13.286
2017-11-29T06:27:54,42.805,6.029,4330,1995,198.049,60.563,13.286
2017-11-29T06:30:54,42.805,6.029,4330,1995,198.069,60.570,13.286
2017-11-29T06:33:54,42.805,6.029,4330,1995,198.038,60.560,13.286
2017-11-29T06:36:54,42.805,6.029,4330,1995,197.992,60.546,13.286
2017-11-29T06:39:54,42.805,6.029,4330,1995,197.938,60.530,13.286
2017-11-29T06:42:54,42.805,6.029,4330,1995,197.909,60.521,13.286
2017-11-29T06:45:54,42.805,6.029,4330,1995,197.862,60.507,13.286
2017-11-29T06:48:54,42.805,6.029,4330,1995,197.864,60.507,13.287
2017-11-29T06:51:54,42.805,6.029,4330,1995,197.850,60.503,13.286
2017-11-29T06:54:54,42.805,6.029,4330,1995,197.825,60.495,13.286
2017-11-29T06:57:54,42.805,6.029,4330,1995,197.820,60.494,13.286
2017-11-29T07:00:54,42.805,6.029,4330,1995,197.767,60.478,13.286
2017-11-29T07:03:54,42.805,6.029,4330,1995,197.734,60.467,13.286
2017-11-29T07:06:54,42.805,6.029,4330,1995,197.725,60.464,13.286
2017-11-29T07:09:54,42.805,6.029,4330,1995,197.747,60.471,13.286
2017-11-29T07:12:54,42.805,6.029,4330,1995,197.787,60.484,13.286
2017-11-29T07:15:54,42.805,6.029,4330,1995,197.684,60.453,13.286
2017-11-29T07:18:54,42.805,6.029,4330,1995,197.657,60.444,13.287
2017-11-29T07:21:54,42.805,6.029,4330,1995,197.676,60.450,13.286
2017-11-29T07:24:54,42.805,6.029,4330,1995,197.669,60.447,13.286
2017-11-29T07:27:54,42.805,6.029,4330,1995,197.621,60.433,13.286
2017-11-29T07:30:54,42.805,6.029,4330,1995,197.640,60.439,13.287
2017-11-29T07:33:54,42.805,6.029,4330,1995,197.553,60.412,13.286
2017-11-29T07:36:54,42.805,6.029,4330,1995,197.538,60.408,13.286
2017-11-29T07:39:54,42.805,6.029,4330,1995,197.547,60.411,13.287
2017-11-29T07:42:54,42.805,6.029,4330,1995,197.543,60.409,13.286
2017-11-29T07:45:54,42.805,6.029,4330,1995,197.487,60.392,13.286
2017-11-29T07:48:54,42.805,6.029,4330,1995,197.524,60.403,13.286
2017-11-29T07:51:54,42.805,6.029,4330,1995,197.447,60.380,13.286
2017-11-29T07:54:54,42.805,6.029,4330,1995,197.453,60.382,13.286
2017-11-29T07:57:54,42.805,6.029,4330,1995,197.376,60.358,13.286
2017-11-29T08:00:54,42.805,6.029,4330,1995,197.315,60.340,13.286
2017-11-29T08:03:54,42.805,6.029,4330,1995,197.285,60.330,13.286
2017-11-29T08:06:54,42.805,6.029,4330,1995,197.295,60.334,13.287
2017-11-29T08:09:54,42.805,6.029,4330,1995,197.241,60.317,13.287
2017-11-29T08:12:54,42.805,6.029,4330,1995,197.209,60.307,13.286
2017-11-29T08:15:54,42.805,6.029,4330,1995,197.131,60.284,13.287
2017-11-29T08:18:54,42.805,6.029,4330,1995,197.150,60.290,13.287
2017-11-29T08:21:54,42.805,6.029,4330,1995,197.142,60.287,13.287
2017-11-29T08:24:54,42.805,6.029,4330,1995,197.089,60.271,13.287
2017-11-29T08:27:54,42.805,6.029,4330,1995,197.191,60.302,13.287
2017-11-29T08:30:54,42.805,6.029,4330,1995,197.156,60.291,13.286
2017-11-29T08:33:54,42.805,6.029,4330,1995,197.161,60.292,13.286
2017-11-29T08:36:54,42.805,6.029,4330,1995,197.108,60.277,13.287
2017-11-29T08:39:54,42.805,6.029,4330,1995,197.111,60.277,13.286
2017-11-29T08:42:54,42.805,6.029,4330,1995,197.063,60.263,13.287
2017-11-29T08:45:54,42.805,6.029,4330,1995,197.055,60.261,13.287
2017-11-29T08:48:54,42.805,6.029,4330,1995,197.096,60.273,13.286
2017-11-29T08:51:54,42.805,6.029,4330,1995,197.121,60.281,13.287
2017-11-29T08:54:54,42.805,6.029,4330,1995,197.081,60.268,13.286
2017-11-29T08:57:54,42.805,6.029,4330,1995,197.061,60.262,13.287
2017-11-29T09:00:54,42.805,6.029,4330,1995,197.093,60.272,13.287
2017-11-29T09:03:54,42.805,6.029,4330,1995,197.004,60.245,13.287
2017-11-29T09:06:54,42.805,6.029,4330,1995,196.960,60.232,13.287
2017-11-29T09:09:54,42.805,6.029,4330,1995,196.942,60.226,13.287
2017-11-29T09:12:54,42.805,6.029,4330,1995,196.964,60.233,13.287
2017-11-29T09:15:54,42.805,6.029,4330,1995,197.000,60.243,13.287
2017-11-29T09:18:54,42.805,6.029,4330,1995,196.900,60.213,13.287
2017-11-29T09:21:54,42.805,6.029,4330,1995,196.972,60.234,13.286
2017-11-29T09:24:54,42.805,6.029,4330,1995,196.935,60.223,13.286
2017-11-29T09:27:54,42.805,6.029,4330,1995,196.925,60.221,13.287
2017-11-29T09:30:54,42.805,6.029,4330,1995,196.904,60.214,13.286
2017-11-29T09:33:54,42.805,6.029,4330,1995,196.980,60.237,13.286
2017-11-29T09:36:54,42.805,6.029,4330,1995,197.028,60.252,13.287
2017-11-29T09:39:54,42.805,6.029,4330,1995,196.935,60.224,13.287
2017-11-29T09:42:54,42.805,6.029,4330,1995,196.871,60.204,13.287
2017-11-29T09:45:54,42.805,6.029,4330,1995,196.884,60.208,13.287
2017-11-29T09:48:54,42.805,6.029,4330,1995,196.957,60.231,13.287
2017-11-29T09:51:54,42.805,6.029,4330,1995,196.853,60.200,13.287
2017-11-29T09:54:54,42.805,6.029,4330,1995,196.840,60.195,13.287
2017-11-29T09:57:54,42.805,6.029,4330,1995,196.817,60.188,13.287
2017-11-29T10:00:54,42.805,6.029,4330,1995,196.525,60.099,13.287
2017-11-29T10:03:54,42.805,6.029,4330,1995,196.590,60.118,13.287
2017-11-29T10:06:54,42.805,6.029,4330,1995,196.510,60.094,13.287
2017-11-29T10:09:54,42.805,6.029,4330,1995,196.569,60.113,13.288
2017-11-29T10:12:54,42.805,6.029,4330,1995,196.474,60.083,13.287
2017-11-29T10:15:54,42.805,6.029,4330,1995,196.507,60.093,13.287
2017-11-29T10:18:54,42.805,6.029,4330,1995,196.501,60.091,13.287
2017-11-29T10:21:54,42.805,6.029,4330,1995,196.446,60.077,13.289
2017-11-29T10:24:54,42.805,6.029,4330,1995,196.339,60.042,13.287
2017-11-29T10:27:54,42.805,6.029,4330,1995,196.398,60.060,13.287
2017-11-29T10:30:54,42.805,6.029,4330,1995,196.220,60.006,13.287
2017-11-29T10:33:54,42.805,6.029,4330,1995,196.122,59.975,13.287
2017-11-29T10:36:54,42.805,6.029,4330,1995,196.265,60.018,13.286
2017-11-29T10:39:54,42.805,6.029,4330,1995,196.106,59.972,13.288
2017-11-29T10:42:54,42.805,6.029,4330,1995,196.164,59.989,13.287
2017-11-29T10:45:54,42.805,6.029,4330,1995,196.196,59.998,13.287
2017-11-29T10:48:54,42.805,6.029,4330,1995,196.193,59.997,13.287
2017-11-29T10:51:53,42.805,6.029,4330,1995,196.384,60.057,13.288
2017-11-29T10:54:53,42.805,6.029,4330,1995,196.397,60.060,13.287
2017-11-29T10:57:53,42.805,6.029,4330,1995,196.377,60.053,13.287
2017-11-29T11:00:53,42.805,6.029,4330,1995,196.290,60.028,13.288
2017-11-29T11:03:53,42.805,6.029,4330,1995,196.157,59.987,13.288
2017-11-29T11:06:53,42.805,6.029,4330,1995,196.263,60.020,13.288
2017-11-29T11:09:53,42.805,6.029,4330,1995,196.311,60.034,13.287
2017-11-29T11:12:53,42.805,6.029,4330,1995,196.125,59.977,13.288
2017-11-29T11:15:53,42.805,6.029,4330,1995,196.018,59.943,13.287
2017-11-29T11:18:53,42.805,6.029,4330,1995,196.111,59.971,13.287
2017-11-29T11:21:53,42.805,6.029,4330,1995,196.061,59.958,13.288
2017-11-29T11:24:53,42.805,6.029,4330,1995,196.009,59.942,13.288
2017-11-29T11:27:53,42.805,6.029,4330,1995,195.993,59.939,13.289
2017-11-29T11:30:53,42.805,6.029,4330,1995,196.121,59.977,13.289
2017-11-29T11:33:53,42.805,6.029,4330,1995,196.284,60.027,13.289
2017-11-29T11:36:53,42.805,6.029,4330,1995,196.090,59.967,13.288
2017-11-29T11:39:53,42.805,6.029,4330,1995,195.909,59.914,13.290
2017-11-29T11:42:53,42.805,6.029,4330,1995,196.004,59.941,13.288
2017-11-29T11:45:53,42.805,6.029,4330,1995,196.014,59.947,13.290
2017-11-29T11:48:53,42.805,6.029,4330,1995,195.828,59.887,13.288
2017-11-29T11:51:53,42.805,6.029,4330,1995,195.720,59.855,13.289
2017-11-29T11:54:53,42.805,6.029,4330,1995,195.690,59.844,13.288
2017-11-29T11:57:53,42.805,6.029,4330,1995,195.690,59.844,13.287
2017-11-29T12:00:53,42.805,6.029,4330,1995,195.717,59.852,13.287
2017-11-29T12:03:53,42.805,6.029,4330,1995,195.652,59.834,13.289
2017-11-29T12:06:53,42.805,6.029,4330,1995,195.830,59.888,13.289
2017-11-29T12:09:53,42.805,6.029,4330,1995,195.805,59.880,13.288
2017-11-29T12:12:53,42.805,6.029,4330,1995,195.593,59.817,13.290
2017-11-29T12:15:53,42.805,6.029,4330,1995,195.491,59.789,13.292
2017-11-29T12:18:53,42.805,6.029,4330,1995,195.568,59.807,13.288
2017-11-29T12:21:53,42.805,6.029,4330,1995,195.602,59.818,13.288
2017-11-29T12:24:53,42.805,6.029,4330,1995,195.781,59.877,13.291
2017-11-29T12:27:53,42.805,6.029,4330,1995,195.874,59.903,13.290
2017-11-29T12:30:53,42.805,6.029,4330,1995,195.707,59.850,13.288
2017-11-29T12:33:53,42.805,6.029,4330,1995,195.621,59.824,13.288
2017-11-29T12:36:53,42.805,6.029,4330,1995,195.780,59.872,13.288
2017-11-29T12:39:53,42.805,6.029,4330,1995,195.705,59.849,13.288
2017-11-29T12:42:53,42.805,6.029,4330,1995,195.534,59.798,13.289
2017-11-29T12:45:53,42.805,6.029,4330,1995,195.402,59.759,13.290
2017-11-29T12:48:53,42.805,6.029,4330,1995,195.145,59.678,13.288
2017-11-29T12:51:53,42.805,6.029,4330,1995,195.028,59.644,13.289
2017-11-29T12:54:53,42.805,6.029,4330,1995,194.887,59.606,13.293
2017-11-29T12:57:53,42.805,6.029,4330,1995,194.933,59.616,13.290
2017-11-29T13:00:53,42.805,6.029,4330,1995,194.812,59.577,13.289
2017-11-29T13:03:53,42.805,6.029,4330,1995,194.751,59.559,13.289
2017-11-29T13:06:53,42.805,6.029,4330,1995,194.778,59.568,13.290
2017-11-29T13:09:53,42.805,6.029,4330,1995,194.751,59.561,13.290
2017-11-29T13:12:53,42.805,6.029,4330,1995,194.934,59.616,13.290
2017-11-29T13:15:53,42.805,6.029,4330,1995,194.788,59.572,13.290
2017-11-29T13:18:53,42.805,6.029,4330,1995,194.804,59.577,13.291
2017-11-29T13:21:53,42.805,6.029,4330,1995,194.661,59.533,13.290
2017-11-29T13:24:53,42.805,6.029,4330,1995,194.476,59.478,13.291
2017-11-29T13:27:53,42.805,6.029,4330,1995,194.319,59.430,13.292
2017-11-29T13:30:53,42.805,6.029,4330,1995,194.280,59.419,13.292
2017-11-29T13:33:53,42.805,6.029,4330,1995,194.176,59.388,13.292
2017-11-29T13:36:53,42.805,6.029,4330,1995,194.000,59.333,13.292
2017-11-29T13:39:53,42.805,6.029,4330,1995,193.781,59.265,13.291
2017-11-29T13:42:53,42.805,6.029,4330,1995,193.613,59.216,13.293
2017-11-29T13:45:53,42.805,6.029,4330,1995,193.460,59.169,13.293
2017-11-29T13:48:53,42.805,6.029,4330,1995,193.531,59.189,13.291
2017-11-29T13:51:53,42.805,6.029,4330,1995,193.769,59.261,13.291
2017-11-29T13:54:53,42.805,6.029,4330,1995,194.132,59.374,13.292
2017-11-29T13:57:53,42.805,6.029,4330,1995,194.353,59.437,13.289
2017-11-29T14:00:53,42.805,6.029,4330,1995,194.441,59.463,13.288
2017-11-29T14:03:53,42.805,6.029,4330,1995,194.595,59.509,13.287
2017-11-29T14:06:53,42.805,6.029,4330,1995,194.748,59.555,13.287
2017-11-29T14:09:53,42.805,6.029,4330,1995,194.909,59.605,13.287
2017-11-29T14:12:53,42.805,6.029,4330,1995,194.971,59.623,13.287
2017-11-29T14:15:53,42.805,6.029,4330,1995,195.241,59.706,13.287
2017-11-29T14:18:53,42.805,6.029,4330,1995,195.394,59.752,13.287
2017-11-29T14:21:53,42.805,6.029,4330,1995,195.492,59.783,13.287
2017-11-29T14:24:53,42.805,6.029,4330,1995,195.688,59.842,13.286
2017-11-29T14:27:53,42.805,6.029,4330,1995,195.728,59.854,13.286
2017-11-29T14:30:53,42.805,6.029,4330,1995,195.743,59.859,13.287
2017-11-29T14:33:53,42.805,6.029,4330,1995,195.780,59.870,13.287
2017-11-29T14:36:53,42.805,6.029,4330,1995,195.799,59.876,13.286
2017-11-29T14:39:53,42.805,6.029,4330,1995,195.817,59.881,13.286
2017-11-29T14:42:53,42.805,6.029,4330,1995,195.886,59.903,13.286
2017-11-29T14:45:53,42.805,6.029,4330,1995,195.889,59.903,13.286
2017-11-29T14:48:53,42.805,6.029,4330,1995,196.054,59.954,13.286
2017-11-29T14:51:53,42.805,6.029,4330,1995,196.049,59.952,13.286
2017-11-29T14:54:53,42.805,6.029,4330,1995,195.993,59.935,13.286
2017-11-29T14:57:53,42.805,6.029,4330,1995,196.093,59.965,13.286
2017-11-29T15:00:53,42.805,6.029,4330,1995,196.224,60.006,13.286
2017-11-29T15:03:53,42.805,6.029,4330,1995,196.212,60.002,13.286
2017-11-29T15:06:53,42.805,6.029,4330,1995,196.050,59.952,13.286
2017-11-29T15:09:53,42.805,6.029,4330,1995,195.953,59.923,13.286
2017-11-29T15:12:53,42.805,6.029,4330,1995,195.894,59.905,13.286
2017-11-29T15:15:53,42.805,6.029,4330,1995,196.008,59.940,13.286
2017-11-29T15:18:53,42.805,6.029,4330,1995,196.163,59.987,13.286
2017-11-29T15:21:53,42.805,6.029,4330,1995,196.226,60.006,13.286
2017-11-29T15:24:53,42.805,6.029,4330,1995,196.143,59.981,13.286
2017-11-29T15:27:53,42.805,6.029,4330,1995,196.252,60.014,13.286
2017-11-29T15:30:53,42.805,6.029,4330,1995,196.278,60.022,13.286
2017-11-29T15:33:53,42.805,6.029,4330,1995,196.352,60.044,13.286
2017-11-29T15:36:53,42.805,6.029,4330,1995,196.257,60.016,13.286
2017-11-29T15:39:53,42.805,6.029,4330,1995,196.289,60.025,13.286
2017-11-29T15:42:53,42.805,6.029,4330,1995,196.228,60.007,13.286
2017-11-29T15:45:53,42.805,6.029,4330,1995,196.244,60.011,13.286
2017-11-29T15:48:53,42.805,6.029,4330,1995,196.258,60.015,13.286
2017-11-29T15:51:53,42.805,6.029,4330,1995,196.372,60.050,13.286
2017-11-29T15:54:53,42.805,6.029,4330,1995,196.458,60.077,13.286
2017-11-29T15:57:53,42.805,6.029,4330,1995,196.459,60.077,13.286
2017-11-29T16:00:53,42.805,6.029,4330,1995,196.548,60.104,13.286
2017-11-29T16:03:53,42.805,6.029,4330,1995,196.563,60.109,13.286
2017-11-29T16:06:53,42.805,6.029,4330,1995,196.577,60.113,13.286
2017-11-29T16:09:53,42.805,6.029,4330,1995,196.682,60.145,13.286
2017-11-29T16:12:53,42.805,6.029,4330,1995,196.572,60.111,13.286
2017-11-29T16:15:53,42.805,6.029,4330,1995,196.610,60.123,13.286
2017-11-29T16:18:53,42.805,6.029,4330,1995,196.567,60.110,13.286
2017-11-29T16:21:53,42.805,6.029,4330,1995,196.536,60.100,13.286
2017-11-29T16:24:53,42.805,6.029,4330,1995,196.568,60.110,13.286
2017-11-29T16:27:53,42.805,6.029,4330,1995,196.569,60.111,13.286
2017-11-29T16:30:53,42.805,6.029,4330,1995,196.532,60.099,13.286
2017-11-29T16:33:53,42.805,6.029,4330,1995,196.558,60.107,13.286
2017-11-29T16:36:53,42.805,6.029,4330,1995,196.491,60.087,13.286
2017-11-29T16:39:53,42.805,6.029,4330,1995,196.571,60.111,13.286
2017-11-29T16:42:53,42.805,6.029,4330,1995,196.537,60.101,13.286
2017-11-29T16:45:53,42.805,6.029,4330,1995,196.517,60.094,13.286
2017-11-29T16:48:53,42.805,6.029,4330,1995,196.529,60.098,13.286
2017-11-29T16:51:53,42.805,6.029,4330,1995,196.604,60.121,13.286
2017-11-29T16:54:53,42.805,6.029,4330,1995,196.594,60.118,13.286
2017-11-29T16:57:53,42.805,6.029,4330,1995,196.542,60.102,13.286
2017-11-29T17:00:53,42.805,6.029,4330,1995,196.577,60.113,13.286
2017-11-29T17:03:53,42.805,6.029,4330,1995,196.581,60.114,13.286
2017-11-29T17:06:53,42.805,6.029,4330,1995,196.583,60.115,13.286
2017-11-29T17:09:53,42.805,6.029,4330,1995,196.717,60.156,13.286
2017-11-29T17:12:53,42.805,6.029,4330,1995,196.665,60.140,13.286
2017-11-29T17:15:53,42.805,6.029,4330,1995,196.647,60.134,13.286
2017-11-29T17:18:53,42.805,6.029,4330,1995,196.479,60.083,13.286
2017-11-29T17:21:53,42.805,6.029,4330,1995,196.646,60.134,13.286
2017-11-29T17:24:53,42.805,6.029,4330,1995,196.782,60.176,13.286
2017-11-29T17:27:53,42.805,6.029,4330,1995,196.832,60.191,13.286
2017-11-29T17:30:53,42.805,6.029,4330,1995,196.716,60.155,13.286
2017-11-29T17:33:53,42.805,6.029,4330,1995,196.683,60.145,13.286
2017-11-29T17:36:53,42.805,6.029,4330,1995,196.826,60.189,13.286
2017-11-29T17:39:53,42.805,6.029,4330,1995,196.932,60.221,13.286
2017-11-29T17:42:53,42.805,6.029,4330,1995,196.903,60.213,13.286
2017-11-29T17:45:53,42.805,6.029,4330,1995,197.087,60.269,13.286
2017-11-29T17:48:53,42.805,6.029,4330,1995,197.115,60.277,13.286
2017-11-29T17:51:53,42.805,6.029,4330,1995,197.186,60.299,13.286
2017-11-29T17:54:53,42.805,6.029,4330,1995,197.279,60.328,13.286
2017-11-29T17:57:53,42.805,6.029,4330,1995,197.293,60.332,13.286
2017-11-29T18:00:53,42.805,6.029,4330,1995,197.359,60.352,13.286
2017-11-29T18:03:53,42.805,6.029,4330,1995,197.375,60.357,13.286
2017-11-29T18:06:53,42.805,6.029,4330,1995,197.427,60.373,13.285